Location: Coupvray
(48.8929°N, 2.7967°E)
Time: 23:47:07
(UTC+00:00)

COSMOS 1275 DEB - Visible Passes

Search period start: 23 January 2021 00:00
Search period end: 02 February 2021 00:00
Orbit: 900 x 991 km, 83.1° (Epoch: 20 January)

Date Brightness Start Highest point End Pass type
(mag) Time Alt. Az. Time Alt. Az. Time Alt. Az.
23 Jan ? 05:10:47 10° SSE 05:16:19 44° E 05:21:50 10° NNE visible
23 Jan ? 17:42:42 10° NNW 17:48:02 36° W 17:53:28 10° SSW visible
24 Jan ? 03:48:04 10° E 03:49:10 11° ENE 03:50:17 10° ENE visible
24 Jan ? 05:26:54 10° S 05:32:42 66° E 05:38:31 10° NNE visible
24 Jan ? 17:59:37 10° NNW 18:04:19 24° W 18:09:02 10° SW visible
25 Jan ? 04:01:44 10° ESE 04:05:16 17° ENE 04:08:47 10° NE visible
25 Jan ? 05:43:17 10° S 05:49:10 84° W 05:55:05 10° N visible
25 Jan ? 18:16:54 10° NW 18:20:29 17° WNW 18:24:05 10° WSW visible
26 Jan ? 04:16:48 10° SE 04:21:26 25° E 04:26:04 10° NNE visible
26 Jan ? 05:59:57 10° SSW 06:05:43 57° WNW 06:11:31 10° N visible
26 Jan ? 18:35:24 10° WNW 18:36:34 11° WNW 18:37:44 10° W visible
27 Jan ? 04:32:24 10° SSE 04:37:41 37° E 04:43:00 10° NNE visible
27 Jan ? 06:16:55 10° SW 06:22:22 39° WNW 06:27:50 10° N visible
27 Jan ? 17:03:48 10° NNW 17:09:26 43° W 17:15:09 10° SSW visible
28 Jan ? 04:48:20 10° SSE 04:54:01 55° E 04:59:45 10° NNE visible
28 Jan ? 06:34:13 10° SW 06:39:06 27° WNW 06:44:02 10° N visible
28 Jan ? 17:20:38 10° NNW 17:25:45 30° W 17:30:54 10° SW visible
29 Jan ? 03:24:03 10° ESE 03:26:44 13° ENE 03:29:25 10° NE visible
29 Jan ? 05:04:35 10° S 05:10:27 81° E 05:16:21 10° N visible
29 Jan ? 17:37:43 10° NW 17:41:57 20° W 17:46:15 10° SW visible
30 Jan ? 03:38:42 10° SE 03:42:52 20° E 03:47:02 10° NE visible
30 Jan ? 05:21:07 10° SSW 05:26:57 69° W 05:32:51 10° N visible
30 Jan ? 17:55:19 10° NW 17:58:05 13° WNW 18:00:53 10° WSW visible
31 Jan ? 03:54:04 10° SE 03:59:04 30° E 04:04:05 10° NNE visible
31 Jan ? 05:37:57 10° SSW 05:43:33 47° WNW 05:49:14 10° N visible
01 Feb ? 04:09:51 10° SSE 04:15:21 45° E 04:20:55 10° NNE visible
01 Feb ? 05:55:03 10° SW 06:00:15 32° WNW 06:05:30 10° N visible
